AirNav   Air Wisconsin pilot careers
 
 532 users online  

CYTZ Toronto/City Centre Airport
Toronto, Ontario, Canada

GOING TO TORONTO?


FAA INFORMATION EFFECTIVE 11 OCTOBER 2018

The information below comes from the U.S. Federal Avaition Administration (FAA). The FAA is not the official source of data for facilities located outside the United States, and THESE RECORDS ARE LIKELY NOT COMPLETE OR CORRECT.

Location

FAA Identifier: CYTZ
Lat/Long: 43-37-39.0000N / 079-23-46.0000W
43-37.650000N / 079-23.766667W
43.6275000 / -79.3961111
(estimated)
Elevation: 251 ft. / 77 m (estimated)
Variation: 11W ()
Time zone: UTC -4 (UTC -5 during Standard Time)
Zip code: 14174

Airport Operations

Airport use: Open to the public
Activation date: 04/2005
Control tower: no
ARTCC: TORONTO CENTER
FSS: LONDON FIC FLIGHT SERVICE STATION
Attendance: 
Segmented circle: no

Nearby radio navigation aids

VOR radial/distance  VOR name  Freq  Var
YYZr110/10.4TORONTO VOR/DME112.1510W

Airport Services

Runway Information

Runway 8/26

Dimensions: 4000 x 150 ft. / 1219 x 46 m
Surface: asphalt
RUNWAY 8  RUNWAY 26
Traffic pattern: leftleft

Runway 6/24

Dimensions: 3000 x 150 ft. / 914 x 46 m
Surface: asphalt
RUNWAY 6  RUNWAY 24
Traffic pattern: leftleft

Runway 15/33

Dimensions: 2780 x 150 ft. / 847 x 46 m
Surface: asphalt
RUNWAY 15  RUNWAY 33
Traffic pattern: leftleft

Airport Ownership and Management from official FAA records

Ownership: Privately-owned

Instrument Procedures

There are no published instrument procedures at CYTZ.

Some nearby airports with instrument procedures:

KIAG - Niagara Falls International Airport (37 nm SE)
0G0 - North Buffalo Suburban Airport (44 nm SE)
KBUF - Buffalo Niagara International Airport (50 nm SE)
9G3 - Akron Airport (54 nm SE)
9G0 - Buffalo Airfield (55 nm SE)
 
Loc | Ops | Rwys | IFR | FBO | Links
Com | Nav | Svcs | Stats | Notes


 
Aerial photo
No photo
 
Airport distance calculator
Flying to Toronto/City Centre Airport? Find the distance to fly.

From to CYTZ

Sunrise and sunset
Times for 22-Oct-2018
 Local
(UTC-4)
 Zulu
(UTC)
Morning civil twilight07:1211:12
Sunrise07:4111:41
Sunset18:2322:23
Evening civil twilight18:5222:52

Current date and time
Zulu (UTC)  22-Oct-2018 10:51:36
Local (UTC-4)  22-Oct-2018 06:51:36
 
METAR
CYTZ 221000Z AUTO 23004KT 9SM OVC050 05/01 A3008 RMK SLP190
CYYZ 
11nm W 
221000Z 21004KT 150V230 15SM SCT042 OVC095 04/M01 A3006 RMK SC4AC4 SLP188
CYKZ 
14nm N 
221000Z 20004KT 15SM SCT031 OVC096 04/M01 A3006 RMK SC3AC5 SLP188
TAF
CYTZ 220738Z 2208/2308 25008KT P6SM BKN050 BKN100 TEMPO 2208/2211 SCT050 BKN100 FM221100 25008KT P6SM SCT040 TEMPO 2211/2217 BKN040 BECMG 2215/2217 21010KT FM222100 24012KT P6SM BKN040 FM230300 27006KT P6SM SCT040 BECMG 2304/2306 VRB03KT RMK FCST BASED ON AUTO OBS. NXT FCST BY 221400Z
CYYZ 
11nm W 
220838Z 2209/2312 VRB03KT P6SM SCT050 BKN090 TEMPO 2209/2211 BKN050 OVC090 FM221100 24005KT P6SM SCT040 TEMPO 2211/2216 BKN040 BECMG 2216/2218 25010G20KT FM222100 25012KT P6SM BKN040 BECMG 2223/2301 25006KT FM230600 VRB03KT P6SM SCT040 FM230900 VRB03KT P6SM FEW020 BKN040 TEMPO 2310/2312 6SM -SHRA BR FEW006 BKN020 OVC040 RMK NXT FCST BY 221200Z
CYKZ 
14nm N 
220541Z 2206/2218 24007KT P6SM BKN050 BKN100 TEMPO 2206/2211 SCT050 BKN100 FM221100 24005KT P6SM SCT040 TEMPO 2211/2217 BKN040 BECMG 2215/2217 22010KT RMK NXT FCST BY 221200Z
NOTAMs
Click for the latest NOTAMs
NOTAMs are issued by the DoD/FAA and will open in a separate window not controlled by AirNav.

 

 
 

Would you like to see your business listed on this page?

 If your business provides an interesting product or service to pilots, flight crews, aircraft, or users of the Toronto/City Centre Airport, you should consider listing it here.  To start the listing process, click on the button below
 
Add a business
 

Other Pages about Toronto/City Centre Airport

Update a link
 
Copyright © AirNav, LLC. All rights reserved. Privacy Policy  Contact